Voltar ao catálogo

COSMOS 1375 DEB

AtivoLEO
NORAD 18278·DEBRIS·🇷🇺 Russia

Lançado Jun 6, 1982 de Plesetsk Cosmodrome

Loading…

Próximas Passagens (próximas 24 horas)

TLE

AtualizadoSource: Space-Track

Época: Sep 14, 2026, 11:10 UTC

1 18278U 82055BA  26257.46546716  .00000388  00000-0  37591-3 0  9994
2 18278  65.8287  67.9780 0030910 148.8809 240.4064 13.90738271 64250

Acompanhe COSMOS 1375 DEB em tempo real com AllMySat

Download on the App Store